TimeCDT,TemperatureF,Dew PointF,Humidity,Sea Level PressureIn,VisibilityMPH,Wind Direction,Wind SpeedMPH,Gust SpeedMPH,PrecipitationIn,Events,Conditions,WindDirDegrees,DateUTC
12:56 AM,55.9,48.0,75,30.16,-9999.0,North,4.6,-,N/A,,Unknown,350,2011-10-09 05:56:00
1:56 AM,55.0,48.0,77,30.16,-9999.0,NNW,4.6,-,N/A,,Unknown,340,2011-10-09 06:56:00
2:56 AM,55.0,48.0,77,30.17,-9999.0,North,6.9,-,N/A,,Unknown,350,2011-10-09 07:56:00
3:56 AM,53.1,48.9,86,30.17,-9999.0,North,4.6,-,0.01,,Unknown,350,2011-10-09 08:56:00
4:56 AM,52.0,48.0,86,30.17,-9999.0,NNW,3.5,-,N/A,,Unknown,330,2011-10-09 09:56:00
5:56 AM,53.1,48.0,83,30.19,-9999.0,NNW,3.5,-,N/A,,Unknown,340,2011-10-09 10:56:00
6:56 AM,52.0,48.0,86,30.21,-9999.0,NNW,3.5,-,0.01,,Unknown,330,2011-10-09 11:56:00
7:56 AM,52.0,48.9,89,30.20,-9999.0,Calm,Calm,-,0.04,,Unknown,0,2011-10-09 12:56:00
8:56 AM,53.1,50.0,89,30.20,-9999.0,NE,4.6,-,0.02,,Unknown,40,2011-10-09 13:56:00
9:56 AM,53.1,51.1,93,30.20,-9999.0,Calm,Calm,-,0.07,,Unknown,0,2011-10-09 14:56:00
10:56 AM,55.0,52.0,89,30.18,-9999.0,ENE,3.5,-,0.02,,Unknown,60,2011-10-09 15:56:00
11:56 AM,55.0,52.0,89,30.17,-9999.0,Calm,Calm,-,N/A,,Unknown,0,2011-10-09 16:56:00
12:56 PM,55.9,53.1,90,30.15,-9999.0,Calm,Calm,-,0.01,,Unknown,0,2011-10-09 17:56:00
1:56 PM,59.0,55.0,87,30.10,-9999.0,Calm,Calm,-,N/A,,Unknown,0,2011-10-09 18:56:00
2:56 PM,60.1,55.9,86,30.07,-9999.0,Calm,Calm,-,N/A,,Unknown,0,2011-10-09 19:56:00
3:56 PM,62.1,57.9,86,30.05,-9999.0,Calm,Calm,-,N/A,,Unknown,0,2011-10-09 20:56:00
4:56 PM,66.0,60.1,81,30.03,-9999.0,SSE,5.8,-,N/A,,Unknown,160,2011-10-09 21:56:00
5:56 PM,64.9,60.1,84,30.01,-9999.0,Calm,Calm,-,N/A,,Unknown,0,2011-10-09 22:56:00
6:56 PM,62.1,59.0,90,30.00,-9999.0,NNW,5.8,-,N/A,,Unknown,340,2011-10-09 23:56:00
7:56 PM,59.0,57.0,93,29.99,-9999.0,NNW,4.6,-,N/A,,Unknown,330,2011-10-10 00:56:00
8:56 PM,59.0,57.0,93,29.99,-9999.0,NNW,9.2,-,N/A,,Unknown,340,2011-10-10 01:56:00
9:56 PM,57.0,55.0,93,29.98,-9999.0,NNW,5.8,-,N/A,,Unknown,340,2011-10-10 02:56:00
10:56 PM,55.9,55.0,97,29.98,-9999.0,Calm,Calm,-,N/A,,Unknown,0,2011-10-10 03:56:00
11:56 PM,55.0,54.0,96,29.96,-9999.0,South,3.5,-,N/A,,Unknown,170,2011-10-10 04:56:00